Location: Zagreb
(45.8000°N, 16.0000°E)
Time: 16:30:21
(UTC+02:00)

Transit 2A Rocket - Visible Passes

Search period start: 27 September 2023 00:00
Search period end: 07 October 2023 00:00
Orbit: 591 x 906 km, 66.7° (Epoch: 26 September)

Date Brightness Start Highest point End Pass type
(mag) Time Alt. Az. Time Alt. Az. Time Alt. Az.
27 Sep 7.1 21:40:30 10° N 21:41:34 13° NNE 21:41:34 13° NNE visible
28 Sep 7.1 20:58:28 10° NNE 20:59:00 10° NNE 20:59:03 10° NNE visible
28 Sep 7.6 22:38:28 10° NNW 22:38:53 12° NNW 22:38:53 12° NNW visible
29 Sep 7.1 21:55:13 10° NNW 21:56:23 16° N 21:56:23 16° N visible
30 Sep 6.8 21:12:09 10° N 21:13:54 16° NNE 21:13:54 16° NNE visible
01 Oct 6.8 20:29:25 10° N 20:31:15 12° NNE 20:31:27 12° NNE visible
01 Oct 7.3 22:10:22 10° NNW 22:11:17 16° NNW 22:11:17 16° NNW visible
02 Oct 6.6 21:27:01 10° NNW 21:28:51 21° N 21:28:51 21° N visible
03 Oct 6.3 20:43:51 10° N 20:46:27 21° NNE 20:46:27 21° NNE visible
03 Oct 7.6 22:25:52 10° NW 22:26:16 12° NW 22:26:16 12° NW visible
04 Oct 6.5 20:00:54 10° N 20:03:27 15° NE 20:04:04 14° NE visible
04 Oct 6.8 21:42:17 10° NNW 21:43:54 22° NNW 21:43:54 22° NNW visible
05 Oct 6.8 19:18:51 10° NNE 19:19:26 10° NNE 19:20:00 10° NE visible
05 Oct 5.9 20:58:52 10° NNW 21:01:34 31° N 21:01:34 31° N visible
06 Oct 5.7 20:15:36 10° NNW 20:19:16 27° NE 20:19:16 27° NE visible
06 Oct 7.2 21:57:57 10° NW 21:59:06 17° NW 21:59:06 17° NW visible
